Location: Acton
(51.4942°N, 0.2232°W)
Time: 02:18:21
(UTC+00:00)

CZ-4C R/B - Pass Details

Date: 18 September 2020
Orbit: 626 x 1376 km, 63.4° (Epoch: 30 October)

Event Time Altitude Azimuth Distance (km) Brightness Sun altitude
Exits shadow 23:01:59 19° 50° (NE) 2,035 4.3 -35.9°
Drops below altitude 10° 23:03:43 10° 47° (NE) 2,676 5.0 -36.0°
Sets 23:06:33 0° 46° (NE) 3,752 5.9 -36.1°
